Hourly Data Report for October 05, 2017

All times are specified in Local Standard Time (LST). Add 1 hour to adjust for Daylight Saving Time where and when it is observed.

TERRACE A
BRITISH COLUMBIA

54°28'07.000" N
128°34'42.000" W
217.30 m
1068134
71951
YXT

Download Data

Hourly Data (October 2017)
Hourly Data Report for October 5, 2017
Temp Definition
°C
Dew Point Temp Definition
°C
Rel Hum Definition
%
Wind Dir Definition
10's deg

Wind Spd Definition
km/h
Visibility Definition
km
Stn Press Definition
kPa
Hmdx Definition


Wind Chill Definition


Weather Definition


TIME
00:00 Legend Double Dagger 1.9 1.5 97 36 3 32.2 99.67     LegendNANA
01:00 Legend Double Dagger 2.5 1.9 96 36 2 32.2 99.69     Clear
02:00 Legend Double Dagger 0.6 0.1 97 28 3 32.2 99.68     LegendNANA
03:00 Legend Double Dagger -0.6 -1.0 97 36 1 32.2 99.68   -1 LegendNANA
04:00 Legend Double Dagger 0.4 0.0 97 1 4 32.2 99.66     Clear
05:00 Legend Double Dagger -0.6 -1.0 97 36 1 24.1 99.65   -1 LegendNANA
06:00 Legend Double Dagger -1.7 -2.0 97 13 4 16.1 99.64   -3 LegendNANA
07:00 Legend Double Dagger -0.7 -1.1 97 36 2 12.9 99.68   -1 Mostly Cloudy
08:00 Legend Double Dagger -0.3 -0.6 98 0 1 2.0 99.65   -1 Fog
09:00 Legend Double Dagger 2.6 2.3 98 36 2 11.3 99.66     LegendNANA
10:00 Legend Double Dagger 3.5 3.2 97 19 3 4.0 99.61     Fog
11:00 Legend Double Dagger 6.5 4.8 89 36 2 6.4 99.54     LegendNANA
12:00 Legend Double Dagger 9.3 4.8 73 16 7 32.2 99.47     LegendNANA
13:00 Legend Double Dagger 11.6 5.6 66 30 5 32.2 99.33     Mainly Clear
14:00 Legend Double Dagger 12.3 5.2 62 13 4 32.2 99.21     LegendNANA
15:00 Legend Double Dagger 14.5 5.2 53 19 18 32.2 99.12     LegendNANA
16:00 Legend Double Dagger 14.1 3.5 49 20 17 32.2 99.08     Mostly Cloudy
17:00 Legend Double Dagger 12.0 3.5 56 18 34 32.2 98.98     LegendNANA
18:00 Legend Double Dagger 11.9 3.7 57 17 43 32.2 98.89     LegendNANA
19:00 Legend Double Dagger 11.1 4.3 63 17 35 24.1 98.84     Rain
20:00 Legend Double Dagger 10.0 5.1 71 16 31 24.1 98.75     Rain
21:00 Legend Double Dagger 9.1 6.3 83 17 35 24.1 98.59     Rain
22:00 Legend Double Dagger 8.4 6.6 88 19 32 24.1 98.54     Rain
23:00 Legend Double Dagger 8.2 7.1 93 19 31 16.1 98.49     Rain

Notes on Data Quality.

Legend

  • E = Estimated
  • M = Missing
  • NA = Not Available
  • ‡ = Partner data that is not subject to review by the National Climate Archives
Date modified: